Orbital Elements at Epoch 2459200.5 (2020-Dec-17.0) TDB
Reference: JPL 16 (heliocentric ecliptic J2000)
Element | Value | Uncertainty (1-sigma) | Units |
e | .0672720939911932 | 3.8676e-08 | |
a | 2.649621528557929 | 1.4076e-08 | au |
q | 2.471375940047691 | 1.0529e-07 | au |
i | 1.833428488750271 | 5.2786e-06 | deg |
node | 329.746857959528 | 0.00011956 | deg |
peri | 128.6676037718964 | 0.0001282 | deg |
M | .1015190526292025 | 4.3391e-05 | deg |
tp | 2459200.055758375973 (2020-Dec-16.55575838) | 0.00018988 | TDB |
period | 1575.339608751433 4.31 | 1.2554e-05 3.437e-08 | d yr |
n | .2285221535725399 | 1.821e-09 | deg/d |
Q | 2.827867117068167 | 1.5023e-08 | au |
|
| | Orbit Determination Parameters
Additional Information
|